Overview Statistics Trail Chart Weather Telemetry Raw packets
 

This is the latest recevied weather packets stored in our database for station/object VK2EHQ. If no packets are shown the sender has not sent any weather packets the latest 10 day(s).

<< 5 6 7 8 9 10 11 >>
Time Temp. Humidity Pressure Rain* Wind** Luminosity Snow
1788474060 14.44° C 64% 1022.1 hPa 0 mm - - -
1788473460 14.44° C 64% 1021.5 hPa 0 mm - - -
1788472860 13.89° C 64% 1021.6 hPa 0 mm - - -
1788472260 13.89° C 65% 1021.9 hPa 0 mm - - -
1788471660 13.89° C 65% 1021.6 hPa 0 mm - - -
1788471060 13.33° C 66% 1021.8 hPa 0 mm - - -
1788470460 13.33° C 67% 1021.8 hPa 0 mm - - -
1788469860 12.78° C 67% 1021.6 hPa 0 mm - - -
1788469259 12.78° C 68% 1021.4 hPa 0 mm - - -
1788468659 12.22° C 68% 1021.4 hPa 0 mm - - -
1788468059 12.22° C 69% 1021.3 hPa 0 mm - - -
1788467459 11.67° C 68% 1021.3 hPa 0 mm - - -
1788466859 12.22° C 67% 1021.1 hPa 0 mm - - -
1788466259 12.22° C 67% 1021.2 hPa 0 mm - - -
1788465659 12.78° C 67% 1021 hPa 0 mm - - -
1788465059 12.78° C 67% 1021 hPa 0 mm - - -
1788464459 12.78° C 67% 1020.8 hPa 0 mm - - -
1788463859 12.78° C 68% 1020.7 hPa 0 mm - - -
1788463259 12.22° C 69% 1020.6 hPa 0 mm - - -
1788462659 11.67° C 70% 1020.6 hPa 0 mm - - -
1788462059 11.11° C 70% 1020.6 hPa 0 mm - - -
1788461459 11.11° C 70% 1020.5 hPa 0 mm - - -
1788460859 11.11° C 70% 1020.3 hPa 0 mm - - -
1788460259 11.11° C 70% 1020.3 hPa 0 mm - - -
1788459659 11.67° C 70% 1020.1 hPa 0 mm - - -

* Rain latest hour (hover to see other rain measurements)
** Current wind speed in m/s (hover to see current wind gust speed)